Volver al catálogo

OPS 4311

DMSP 5B F1

ActivoMeteoSSO
NORAD 5557·PAYLOAD·🇺🇸 United States

Lanzado Oct 14, 1971 desde Vandenberg Space Force Base

Loading…

Próximos Pases (próximas 24 horas)

TLE

ActualizadoSource: Space-Track

Época: Sep 14, 2026, 13:55 UTC

1 05557U 71087A   26257.58021883  .00000111  00000-0  62490-4 0  9990
2 05557  99.0243   2.9887 0050470  11.5492 348.6833 14.28547853853203

Sigue OPS 4311 en tiempo real con AllMySat

Download on the App Store